Location: Krakow
(50.0830°N, 19.9170°E)
Time: 10:36:40
(UTC+02:00)

ACS3 Solar Sail - Pass Details

Date: 27 May 2026
Orbit: 877 x 953 km, 97.2° (Epoch: 8 June)

Event Time Altitude Azimuth Distance (km) Brightness Sun altitude
Rises 23:49:57 0° 25° (NNE) 3,485 5.6 -17.7°
Reaches altitude 10° 23:53:20 10° 46° (NE) 2,543 4.4 -17.8°
Maximum altitude 23:56:50 17° 85° (E) 2,110 3.5 -17.9°
Enters shadow 23:59:40 12° 117° (ESE) 2,405 3.5 -18.0°
